GOES 3 [-]

Last updated on July 6, 2021, 3:23 p.m. UTC

1 10953U 78062A   21186.14104228 -.00000221  00000-0  00000-0 0  9997
2 10953  10.9073 315.1003 0003108 112.7609 249.1882  0.99365263110572
UTC
Height (km)
Latitude
Longitude
Inclination
Orbital Period
UTC large
Height (km)
Speed (km/s)
/
Latitude / Longitude
Inclination (degrees)
Orbital Period (minutes)
Azimuth
Elevation
Range (km)
Doppler Factor
iOS Compass Heading
iOS Angle